Stations météo

réclame
Mon MeteoGroup
Kinlochewe, Grande-Bretagne (99092): Température de l'air & dewpoint: 12.06.2018 14:00:00 - 18.06.2018 14:00:00 (BST)Kinlochewe, Grande-Bretagne (99092): Température de l'air -20cm: 12.06.2018 14:00:00 - 18.06.2018 14:00:00 (BST)Kinlochewe, Grande-Bretagne (99092): Quantités de précipitations: 12.06.2018 14:00:00 - 18.06.2018 14:00:00 (BST)
Date & Time tt [°C] td [°C] tt -20cm [°C] rr [mm]
18.06.2018 14:00:00 14,1 7,3 - 0,0
18.06.2018 13:00:00 14,3 6,5 - 0,0
18.06.2018 12:00:00 13,5 6,2 - 0,0
18.06.2018 11:00:00 14,1 5,9 - 0,0
18.06.2018 10:00:00 12,7 6,1 12,9 0,0
18.06.2018 09:00:00 12,5 5,8 - 0,0
18.06.2018 08:00:00 12,3 4,8 - 0,0
18.06.2018 07:00:00 11,9 5,1 - 0,0
18.06.2018 06:00:00 11,7 5,5 - 0,2
18.06.2018 05:00:00 11,8 4,8 - 0,0
18.06.2018 04:00:00 12,1 5,2 - 0,0
18.06.2018 03:00:00 12,3 6,3 - 0,0
18.06.2018 02:00:00 12,3 7,4 - 0,0
18.06.2018 01:00:00 12,7 7,9 - 0,0
18.06.2018 00:00:00 12,2 10,3 - 0,4
17.06.2018 23:00:00 12,6 11,4 - 0,6
17.06.2018 22:00:00 13,2 11,4 - 0,0
17.06.2018 21:00:00 13,7 11,3 - 0,4
17.06.2018 20:00:00 13,3 11,5 - 0,4
17.06.2018 19:00:00 14,2 9,7 - 0,0
17.06.2018 18:00:00 14,6 9,5 - 0,0
17.06.2018 17:00:00 15,3 9,4 - 0,0
17.06.2018 16:00:00 15,1 8,7 - 0,0
17.06.2018 15:00:00 15,7 9,3 - 0,0
17.06.2018 14:00:00 13,8 9,6 - 0,0
17.06.2018 13:00:00 14,4 9,8 - 0,0
17.06.2018 12:00:00 13,0 9,7 - 0,0
17.06.2018 11:00:00 11,9 9,6 - 0,0
17.06.2018 10:00:00 11,2 8,7 12,9 0,0
17.06.2018 09:00:00 11,8 7,1 - 0,0
17.06.2018 08:00:00 11,9 8,7 - 0,0
17.06.2018 07:00:00 9,6 8,6 - 0,0
17.06.2018 06:00:00 7,6 7,0 - 0,0
17.06.2018 05:00:00 7,5 6,7 - 0,0
17.06.2018 04:00:00 8,8 7,4 - 0,0
17.06.2018 03:00:00 9,9 8,7 - 0,0
17.06.2018 02:00:00 8,7 8,2 - 0,0
17.06.2018 01:00:00 9,0 8,7 - 0,0
17.06.2018 00:00:00 9,6 9,1 - 0,0
16.06.2018 23:00:00 10,4 9,3 - 0,0
16.06.2018 22:00:00 10,8 9,8 - 0,0
16.06.2018 21:00:00 11,0 10,0 - 0,2
16.06.2018 20:00:00 11,5 10,0 - 0,0
16.06.2018 19:00:00 13,0 10,0 - 0,0
16.06.2018 18:00:00 12,5 9,0 - 0,4
16.06.2018 17:00:00 11,4 9,5 - 2,0
16.06.2018 16:00:00 10,9 7,8 - 0,6
16.06.2018 15:00:00 14,9 9,8 - 0,0
16.06.2018 14:00:00 13,9 10,8 - 0,0
16.06.2018 13:00:00 12,9 9,8 - 0,2
16.06.2018 12:00:00 13,0 10,4 - 0,2
16.06.2018 11:00:00 11,6 10,0 - 1,2
16.06.2018 10:00:00 11,5 9,9 13,2 0,8
16.06.2018 09:00:00 12,0 9,0 - 0,2
16.06.2018 08:00:00 12,3 7,9 - 0,0
16.06.2018 07:00:00 10,4 8,1 - 0,0
16.06.2018 06:00:00 9,3 7,6 - 0,0
16.06.2018 05:00:00 8,2 6,7 - 0,0
16.06.2018 04:00:00 8,5 6,8 - 0,0
16.06.2018 03:00:00 10,1 7,6 - 0,0
16.06.2018 02:00:00 10,6 7,6 - 0,0
16.06.2018 01:00:00 10,3 8,1 - 0,0
16.06.2018 00:00:00 9,6 7,9 - 0,0
15.06.2018 23:00:00 10,3 7,8 - 0,0
15.06.2018 22:00:00 11,3 7,2 - 0,0
15.06.2018 21:00:00 12,1 7,5 - 0,0
15.06.2018 20:00:00 12,8 7,3 - 0,0
15.06.2018 19:00:00 13,4 7,4 - 0,0
15.06.2018 18:00:00 13,3 7,4 - 0,0
15.06.2018 17:00:00 15,6 7,3 - 0,0
15.06.2018 16:00:00 13,1 11,4 - 0,8
15.06.2018 15:00:00 11,3 9,2 - 1,0
15.06.2018 14:00:00 12,2 11,5 - 1,4
15.06.2018 13:00:00 16,1 10,7 - 0,6
15.06.2018 12:00:00 14,1 8,5 - 0,4
15.06.2018 11:00:00 10,5 8,3 - 1,2
15.06.2018 10:00:00 11,4 9,3 12,9 0,8
15.06.2018 09:00:00 10,5 8,2 - 1,4
15.06.2018 08:00:00 12,1 6,3 - 0,2
15.06.2018 07:00:00 11,3 7,2 - 0,0
15.06.2018 06:00:00 11,0 7,4 - 0,0
15.06.2018 05:00:00 10,9 7,3 - 0,0
15.06.2018 04:00:00 10,4 6,8 - 0,0
15.06.2018 03:00:00 8,9 8,1 - 0,0
15.06.2018 02:00:00 9,6 7,7 - 1,2
15.06.2018 01:00:00 10,5 6,7 - 0,0
15.06.2018 00:00:00 11,0 5,2 - 0,0
14.06.2018 23:00:00 11,1 5,4 - 0,0
14.06.2018 22:00:00 11,3 5,4 - 0,0
14.06.2018 21:00:00 11,3 5,8 - 0,0
14.06.2018 20:00:00 10,9 6,0 - 0,2
14.06.2018 19:00:00 11,0 6,6 - 0,4
14.06.2018 18:00:00 10,6 7,0 - 2,4
14.06.2018 17:00:00 12,0 6,7 - 0,2
14.06.2018 16:00:00 10,7 7,2 - 1,6
14.06.2018 15:00:00 12,2 7,2 - 0,0
14.06.2018 14:00:00 12,8 6,0 - 0,4
14.06.2018 13:00:00 12,0 6,9 - 0,2
14.06.2018 12:00:00 11,0 7,5 - 2,2
14.06.2018 11:00:00 11,1 8,9 - 3,6
14.06.2018 10:00:00 11,7 9,9 13,2 2,4
14.06.2018 09:00:00 13,2 11,4 - 0,4
14.06.2018 08:00:00 13,8 11,0 - 0,4
14.06.2018 07:00:00 13,5 10,5 - 0,6
14.06.2018 06:00:00 13,3 11,2 - 1,6
14.06.2018 05:00:00 14,1 12,1 - 2,2
14.06.2018 04:00:00 15,5 12,6 - 1,0
14.06.2018 03:00:00 16,8 13,8 - 0,4
14.06.2018 02:00:00 16,0 14,1 - 1,2
14.06.2018 01:00:00 15,7 14,0 - 1,0
14.06.2018 00:00:00 13,6 12,9 - 1,2
13.06.2018 23:00:00 12,8 12,4 - 2,0
13.06.2018 22:00:00 12,1 11,8 - 2,2
13.06.2018 21:00:00 12,3 11,9 - 2,2
13.06.2018 20:00:00 12,6 12,0 - 1,0
13.06.2018 19:00:00 13,0 12,1 - 0,8
13.06.2018 18:00:00 13,2 11,8 - 0,2
13.06.2018 17:00:00 12,9 11,3 - 1,6
13.06.2018 16:00:00 12,6 10,7 - 0,6
13.06.2018 15:00:00 12,5 10,3 - 0,4
13.06.2018 14:00:00 12,2 9,7 - 1,4
13.06.2018 13:00:00 12,2 9,8 - 0,6
13.06.2018 12:00:00 12,8 7,3 - 0,0
13.06.2018 11:00:00 13,1 6,5 - 0,0
13.06.2018 10:00:00 12,6 6,2 13,7 0,0
13.06.2018 09:00:00 11,9 5,5 - 0,0
13.06.2018 08:00:00 10,6 7,0 - 0,0
13.06.2018 07:00:00 9,5 7,4 - 0,0
13.06.2018 06:00:00 8,0 6,8 - 0,0
13.06.2018 05:00:00 6,9 5,7 - 0,0
13.06.2018 04:00:00 7,2 5,7 - 0,0
13.06.2018 03:00:00 7,0 6,2 - 0,0
13.06.2018 02:00:00 7,1 5,6 - 0,0
13.06.2018 01:00:00 7,0 5,3 - 0,0
13.06.2018 00:00:00 6,0 4,3 - 0,0
12.06.2018 23:00:00 7,6 5,7 - 0,0
12.06.2018 22:00:00 10,4 5,1 - 0,0
12.06.2018 21:00:00 10,9 5,6 - 0,0
12.06.2018 20:00:00 12,4 6,3 - 0,0
12.06.2018 19:00:00 12,9 5,6 - 0,0
12.06.2018 18:00:00 13,6 5,8 - 0,0
12.06.2018 17:00:00 14,3 6,6 - 0,0
12.06.2018 16:00:00 14,6 7,2 - 0,0
12.06.2018 15:00:00 13,9 7,0 - 0,0
12.06.2018 14:00:00 14,4 7,5 - 0,0

tt = Température de l'air
td = dewpoint
tt -20cm = Température de l'air -20cm
rr = Quantités de précipitations

stations d'obs. à proximité